Wind_Speed
13 12 12 12 13 14 14 13 12 11 11 10 9 8 7 6 6 6 6 5 5 4 3 4 6 6 6 8 8 8 9 11 13 15 16 17 17 18 18 18 18 18 19 19 18 17 16 15 14 14 14 14 14 13 14 14 15 15 15 15 16 16 17 17 16 16 16 16 17 17 18 18 19 20 21 21 21 21 21 20 20 19 18 17 16
13 12 12 13 13 13 13 12 11 11 10 10 9 7 7 6 4 5 6 6 4 2 1 2 3 4 5 7 7 7 8 10 12 13 14 15 17 18 18 19 19 19 19 19 19 19 18 16 15 15 15 15 15 14 14 15 15 16 16 16 17 17 17 17 17 17 17 17 17 18 18 19 19 20 21 21 22 22 22 22 21 21 20 19 18
13 13 13 13 13 13 12 11 9 10 10 10 9 7 7 6 4 4 5 5 5 1 1 1 4 4 4 6 6 6 6 8 11 12 12 13 15 16 16 18 18 19 19 19 19 19 19 18 16 15 15 15 15 16 16 16 16 17 17 18 18 18 18 18 18 19 19 19 19 19 19 19 20 21 21 21 22 22 22 22 22 22 22 21 20
13 13 13 13 13 13 12 10 9 10 10 10 8 7 6 4 4 4 4 4 5 3 1 2 5 3 3 5 5 5 4 6 9 10 10 11 12 13 14 15 16 16 17 18 19 19 19 18 16 16 16 16 16 17 18 17 17 18 18 19 20 20 20 19 19 19 20 20 20 20 20 21 21 21 22 22 22 22 23 23 22 22 23 23 22
12 12 11 12 13 12 11 10 10 10 9 8 7 6 5 4 5 4 4 4 4 5 2 4 3 3 3 4 5 5 4 4 7 10 10 10 11 13 14 14 14 14 16 17 19 19 19 18 17 16 17 17 17 18 18 18 19 19 19 20 21 22 22 21 21 21 20 20 20 21 21 22 22 22 22 23 23 23 23 24 24 23 23 24 24
11 10 9 11 12 11 11 10 10 9 8 8 7 7 4 4 6 4 4 5 3 4 3 3 2 1 1 2 3 3 3 3 5 7 8 9 11 13 13 12 12 13 14 16 17 18 18 18 18 18 18 18 18 19 19 19 20 20 21 21 22 23 23 23 23 22 22 21 20 21 21 22 23 23 24 24 24 24 24 24 24 25 25 25 25
10 8 8 11 11 10 10 10 9 8 8 7 8 8 5 4 6 5 6 6 4 2 2 2 1 0 1 1 2 2 1 1 2 4 5 7 10 12 12 10 10 12 14 15 15 16 16 18 18 18 18 18 19 19 20 20 21 21 22 23 23 24 24 24 24 24 23 22 21 21 21 22 23 23 24 25 25 25 25 25 25 25 25 26 26
10 8 10 11 10 9 10 9 8 8 7 7 7 7 5 3 5 6 8 8 5 2 1 2 1 1 1 1 2 2 1 1 2 3 4 7 10 11 9 9 9 11 13 14 14 15 15 17 18 19 19 20 21 21 22 22 23 23 23 23 23 25 25 25 25 25 25 24 23 23 22 22 23 23 24 25 25 26 26 26 26 26 26 27 27
10 9 10 11 10 9 9 8 8 8 7 7 7 5 5 5 4 6 8 8 5 2 2 1 1 2 2 2 2 2 2 2 3 3 4 6 9 8 6 7 8 8 9 10 10 11 12 13 15 17 18 20 22 23 24 25 25 26 25 24 23 25 26 26 25 25 26 25 25 25 24 24 24 24 24 25 25 26 26 27 28 28 28 28 28
9 9 10 10 9 8 8 8 8 8 8 8 7 6 6 6 5 5 6 7 5 3 1 1 2 1 2 2 1 2 1 1 2 3 3 3 6 6 5 6 6 7 8 8 7 7 7 8 9 10 12 14 17 20 23 24 24 24 23 23 23 23 25 26 26 26 26 26 26 25 25 25 25 25 25 25 25 26 27 28 29 29 30 30 30
8 8 9 8 8 9 9 8 8 8 8 9 8 7 7 7 5 5 6 8 7 5 3 2 3 1 1 1 1 2 2 1 2 3 3 2 4 5 5 5 6 6 7 7 7 7 6 7 7 9 10 12 14 16 18 20 20 20 20 20 21 21 22 25 26 26 26 26 26 26 25 25 26 26 26 26 26 26 27 28 29 30 30 31 32
8 8 8 7 8 9 9 9 8 9 9 10 9 8 8 6 5 6 7 8 8 6 6 6 5 3 3 3 3 3 2 2 2 3 4 3 3 5 5 6 6 7 7 8 8 8 8 8 9 10 11 13 14 14 14 15 17 18 18 18 18 19 19 22 25 27 27 26 26 25 24 24 26 27 27 27 26 27 27 28 29 30 30 31 32
9 10 9 8 8 9 9 9 9 9 10 10 9 8 7 6 5 5 7 8 8 8 8 8 7 5 5 5 5 5 4 4 4 4 5 4 4 6 7 7 8 9 9 10 10 11 10 10 11 12 12 13 13 13 12 12 13 16 17 17 16 17 17 18 21 24 26 26 25 25 25 25 26 27 28 28 27 28 28 28 29 29 30 31 32
11 12 11 10 10 9 9 9 8 9 10 10 9 9 8 6 6 6 6 7 7 7 7 7 7 7 7 7 6 7 7 7 6 6 6 5 6 7 8 9 9 10 11 12 13 14 13 12 12 13 13 13 13 13 12 12 12 13 15 16 16 16 16 17 18 20 22 24 24 25 26 26 26 26 27 28 28 28 28 28 29 29 30 31 32
13 13 12 12 11 10 10 9 8 9 9 9 9 9 8 7 7 7 6 7 7 7 7 7 7 8 8 8 8 8 8 8 8 8 7 7 7 7 9 9 10 11 13 13 14 15 15 14 13 13 14 14 14 13 12 12 12 12 12 14 15 16 16 16 16 17 19 21 22 24 24 24 24 25 26 28 28 28 27 27 27 28 29 30 32
14 14 12 12 12 11 11 10 9 9 9 8 9 9 9 9 8 7 7 7 7 8 8 8 8 8 8 8 9 9 9 9 9 8 8 8 7 7 9 10 11 12 13 13 13 14 14 14 14 14 14 14 14 13 12 12 12 12 11 11 12 13 13 13 14 14 15 17 18 20 20 20 21 23 24 26 27 27 26 26 26 26 27 29 31
15 15 13 13 12 12 11 11 11 10 10 9 10 10 10 10 9 8 8 7 8 8 8 7 8 8 8 9 10 10 10 10 9 8 8 8 8 8 9 10 12 13 12 12 13 14 14 15 15 15 15 14 14 14 13 13 13 12 11 10 10 10 11 11 12 13 13 14 15 17 18 19 20 22 23 24 25 25 25 25 25 26 27 28 29
15 14 14 13 12 11 12 12 12 11 10 10 10 10 10 11 10 9 8 8 9 8 8 8 8 8 9 9 10 10 10 10 10 9 8 9 9 9 8 9 11 11 10 11 12 14 14 14 14 15 15 14 15 15 15 15 14 13 12 11 10 10 10 11 11 12 12 13 15 16 18 19 22 23 23 23 24 24 24 23 24 26 27 27 28
13 13 13 13 12 11 12 12 12 11 10 9 10 10 11 11 10 10 10 10 10 9 8 9 9 9 9 9 9 9 9 11 10 9 9 10 10 10 9 9 9 8 9 11 12 13 13 13 13 14 14 14 15 15 16 16 15 14 14 13 12 11 11 11 12 12 13 13 15 16 17 19 21 22 22 23 23 24 24 23 23 25 26 26 27
11 12 12 13 13 12 12 12 12 11 10 9 9 10 10 10 10 10 11 11 11 10 10 10 10 9 8 8 8 8 9 10 10 9 9 10 10 10 9 9 9 9 9 11 12 12 12 13 13 13 13 13 14 14 15 16 15 15 15 14 14 14 14 13 14 14 15 16 17 18 17 18 20 20 21 22 23 24 23 23 24 25 26 26 26
10 10 10 12 13 13 12 12 12 12 11 11 10 10 11 11 11 11 11 12 12 13 12 11 11 10 9 9 9 9 10 11 11 10 11 11 10 10 10 9 10 10 9 9 10 11 12 12 12 12 12 12 13 13 14 15 15 15 15 15 15 15 16 15 15 16 17 18 19 20 20 21 21 22 22 22 23 24 24 24 24 25 26 26 25
10 9 8 9 10 12 12 12 12 13 13 13 13 12 12 11 11 11 11 11 12 13 13 13 13 11 10 10 10 10 11 11 11 11 12 11 10 10 10 9 9 9 9 8 9 11 11 11 12 11 11 11 12 12 13 13 14 14 15 15 15 16 16 17 17 18 19 19 20 21 22 23 24 24 24 23 24 24 24 24 25 25 26 25 25
11 10 8 7 7 9 10 11 12 12 13 13 14 14 14 12 12 12 11 11 12 13 13 13 13 12 12 12 12 12 12 11 10 10 12 12 10 10 10 9 8 8 8 8 9 10 11 11 11 11 11 10 10 11 11 12 12 12 13 14 14 15 16 17 18 19 19 20 21 22 23 23 24 25 25 25 25 24 24 25 25 26 26 26 25
12 12 11 9 8 7 8 10 10 11 11 12 13 14 14 13 13 12 12 12 12 12 13 13 14 13 13 12 12 12 12 11 9 10 11 10 10 10 10 9 7 7 7 8 9 10 10 10 10 10 10 10 10 10 10 10 10 10 11 11 12 13 14 15 16 17 18 19 20 21 22 23 24 25 26 26 25 25 24 25 25 26 26 26 26
12 13 13 12 12 11 11 11 11 11 11 11 12 12 13 13 12 12 12 13 12 12 12 12 13 13 13 12 11 11 11 10 9 10 9 8 9 11 11 8 6 6 7 7 8 10 10 10 10 10 10 10 10 9 9 9 9 9 9 9 9 10 11 12 13 14 15 16 17 19 20 21 22 23 24 24 25 24 23 23 24 24 25 25 25
13 13 13 13 14 15 15 15 15 14 13 12 12 12 11 11 11 11 11 11 11 11 10 11 11 12 12 11 11 11 10 9 10 10 8 7 9 11 10 8 7 7 7 6 7 9 9 10 10 10 10 10 9 9 9 8 8 8 8 8 8 8 9 9 10 10 11 12 14 15 16 17 18 19 20 21 22 22 23 22 23 23 24 24 24
14 13 12 13 14 16 17 17 17 17 16 15 13 12 12 11 11 10 10 10 10 10 10 10 10 10 11 11 11 11 11 11 11 11 10 9 9 9 8 6 7 7 6 6 7 7 8 9 9 9 9 9 9 9 9 8 8 7 7 7 7 8 8 8 8 8 9 9 10 11 12 13 13 14 15 15 16 18 19 20 21 22 22 23 23
11 11 11 11 12 13 14 15 16 17 17 16 15 14 13 12 12 11 11 11 10 10 10 10 10 10 10 11 11 11 11 11 12 12 12 11 9 7 6 6 6 7 7 7 7 7 7 8 9 9 10 10 10 10 9 9 8 7 7 7 7 7 7 7 7 8 8 8 9 9 10 10 10 11 11 12 12 13 14 15 16 17 18 19 19
7 7 8 8 8 9 10 11 13 15 16 17 16 16 15 14 13 13 13 12 12 12 11 11 11 11 11 11 11 11 11 11 11 12 12 11 9 9 8 7 7 8 8 8 8 8 8 9 10 10 11 11 11 11 10 10 9 9 8 8 7 7 8 8 8 8 8 8 9 9 10 10 10 11 11 11 11 12 12 12 13 14 14 15 16
6 5 6 6 7 8 8 9 9 11 14 15 16 16 15 15 15 14 13 13 13 12 12 12 12 12 12 12 12 12 12 11 12 13 12 12 11 11 11 10 9 10 10 9 10 10 10 11 11 12 12 12 11 12 11 11 11 10 10 9 9 9 9 9 9 9 9 9 9 9 10 11 11 12 12 13 13 13 14 14 14 15 15 15 16
7 7 7 7 8 8 9 9 9 10 11 12 14 14 15 15 15 14 14 13 12 12 12 12 12 12 12 12 13 13 12 13 13 13 13 13 14 13 13 12 12 13 12 12 11 11 12 13 13 13 13 13 12 12 13 13 13 12 11 11 10 10 10 10 10 10 10 11 10 11 11 11 12 12 13 13 14 14 15 16 17 17 17 18 18
9 8 8 8 8 9 9 10 10 11 11 12 13 13 14 15 15 15 14 13 13 12 12 12 12 12 12 13 13 13 13 14 14 14 15 15 15 15 15 14 14 14 15 14 13 13 14 14 14 13 13 13 13 13 13 14 14 14 13 12 11 11 11 11 11 11 11 11 11 12 12 13 13 13 14 14 14 15 16 17 18 18 19 19 20
10 10 9 8 9 9 10 10 10 11 12 12 13 13 13 13 13 14 13 13 13 13 12 12 12 12 13 13 14 14 15 15 16 16 17 17 17 17 17 17 15 15 15 15 14 14 14 14 13 13 14 14 13 13 14 13 13 14 14 13 12 12 12 12 12 12 12 13 13 14 14 15 16 16 16 16 17 17 17 18 19 19 20 20 21
12 10 9 9 9 10 10 11 11 11 11 12 12 12 12 12 12 12 12 12 12 13 13 13 12 13 13 14 14 15 16 17 18 18 18 17 17 18 19 18 16 15 14 14 14 14 14 12 12 13 13 12 13 13 13 12 13 14 14 13 14 14 13 14 14 15 16 17 18 18 19 20 21 21 21 21 21 21 21 21 22 22 22 22 23
12 11 10 9 10 10 10 10 10 11 12 12 12 12 11 11 11 11 12 12 12 13 13 13 14 14 15 15 16 17 17 18 18 18 17 17 17 18 18 18 16 14 13 14 14 15 13 12 13 14 13 12 13 14 13 13 14 14 13 14 16 16 15 16 17 18 20 22 23 24 25 25 25 26 26 26 26 26 27 27 27 27 27 27 26
13 12 11 10 11 10 10 10 10 11 12 12 13 13 12 12 12 12 12 12 12 13 13 14 15 16 17 17 18 18 18 18 18 17 17 16 16 17 18 18 17 15 14 15 16 16 15 13 13 15 15 13 13 14 14 15 16 17 16 16 17 17 17 18 20 21 23 25 26 27 28 28 28 28 28 28 29 29 30 31 31 32 32 32 32
14 13 12 12 12 12 12 12 12 13 13 13 14 14 14 15 15 14 14 14 14 14 14 15 15 16 17 18 19 19 19 19 19 19 19 17 17 18 18 19 18 18 18 17 16 17 17 17 16 17 17 16 15 15 15 16 18 19 19 19 20 20 21 22 23 24 24 24 25 26 27 28 29 30 30 30 31 31 32 32 33 34 34 35 36
14 13 13 13 13 13 14 14 14 15 14 14 15 15 15 16 16 16 16 16 16 16 17 18 18 18 18 18 19 19 19 19 20 21 21 20 20 20 20 20 20 22 23 22 20 19 19 19 20 20 21 20 19 19 19 19 20 21 22 23 23 25 26 27 27 27 26 26 27 27 28 29 30 32 33 34 35 36 36 37 37 38 38 39 39
14 14 14 14 15 15 16 16 16 16 15 15 15 15 16 16 17 17 18 18 19 19 19 20 21 21 20 19 19 19 19 20 21 22 23 22 22 22 22 21 21 23 26 26 25 24 23 23 23 23 23 23 22 22 22 22 23 25 26 26 27 28 29 30 30 30 29 30 31 32 32 32 33 35 36 38 39 40 41 42 42 43 43 43 44
15 15 15 15 16 17 17 17 17 17 17 16 17 17 18 18 19 20 20 21 22 22 22 21 22 22 21 20 20 20 21 21 22 23 24 24 25 24 24 23 23 24 27 29 28 28 27 27 26 26 25 25 25 25 25 25 26 27 27 27 27 28 29 31 31 32 33 33 34 35 37 37 38 39 40 42 43 44 45 45 46 46 46 47 47
17 17 17 17 18 19 19 19 19 19 18 18 19 20 21 22 22 23 23 24 24 24 24 23 22 21 21 21 22 22 23 24 24 24 25 26 27 27 27 27 26 26 27 29 30 30 30 30 29 29 29 28 27 27 28 28 27 28 28 27 27 28 29 31 33 34 36 37 38 39 41 42 43 44 44 44 45 45 46 46 46 46 47 47 48
19 19 19 20 20 21 21 21 21 20 20 20 20 21 23 24 25 25 25 26 26 27 26 26 24 23 22 23 23 24 25 25 26 27 28 28 29 30 30 30 30 29 28 30 32 32 31 30 29 30 30 30 30 30 30 28 27 27 28 28 28 29 31 33 35 37 39 41 42 42 42 44 45 45 44 44 45 45 45 46 46 46 47 47 48
20 20 21 21 21 22 22 22 22 21 21 21 21 22 23 25 27 28 28 29 29 29 29 28 28 27 27 26 26 26 26 26 27 28 29 30 30 31 32 32 32 32 33 33 33 31 29 29 29 30 31 31 30 29 29 28 28 29 29 30 31 32 33 35 36 38 40 42 43 43 42 43 45 46 46 47 48 48 48 49 49 49 49 48 48
21 21 22 22 22 22 23 23 22 22 22 22 23 24 25 26 28 29 30 31 32 33 32 31 31 31 31 31 30 30 29 29 29 29 30 30 31 32 33 34 34 35 36 35 34 31 30 30 30 31 31 30 30 30 31 32 33 33 31 32 33 34 35 36 37 38 40 42 43 43 43 44 45 47 48 49 49 50 50 50 50 50 50 50 49
22 23 23 23 24 25 25 25 25 24 24 25 26 27 27 29 30 30 30 31 32 33 33 33 33 34 34 33 33 33 33 33 34 34 33 32 33 34 35 36 36 37 37 36 35 34 33 33 32 31 31 32 33 35 36 36 35 34 34 34 35 35 36 37 38 40 41 41 42 42 43 44 45 46 47 48 49 50 51 51 51 52 52 51 51
25 26 26 27 27 27 28 29 29 28 28 28 29 29 29 31 32 33 33 32 31 31 32 33 34 33 33 32 32 33 34 35 36 37 37 36 36 36 36 37 39 38 37 37 37 36 36 35 33 33 33 35 37 37 37 36 35 35 35 36 36 36 36 37 39 41 41 41 41 41 43 45 46 47 48 49 50 51 52 52 53 53 53 53 53
30 31 31 31 32 32 33 34 34 33 32 31 31 32 33 34 34 36 37 35 34 34 33 33 33 33 32 32 32 32 33 35 37 38 38 40 40 38 37 38 40 40 40 41 39 37 36 36 35 35 36 37 38 38 37 37 36 36 36 36 35 36 37 38 39 40 41 42 43 45 47 49 50 50 50 50 50 51 51 52 52 53 53 53 54
35 35 35 35 36 37 38 39 39 37 35 33 34 36 37 37 38 38 39 39 39 38 37 36 36 36 36 36 36 36 37 39 40 40 40 41 42 40 38 38 39 40 40 40 37 34 35 37 37 37 38 38 38 39 39 38 38 37 36 35 35 36 37 38 40 41 42 44 46 48 50 52 52 51 50 50 50 50 51 52 52 53 54 55 56
39 39 39 39 39 40 41 42 40 39 38 37 37 40 41 42 42 42 41 41 42 42 42 40 40 40 40 40 41 41 41 43 43 41 42 43 42 41 41 39 38 38 38 37 36 35 36 38 38 39 39 40 40 40 40 40 39 37 36 35 36 37 38 40 41 42 44 46 48 49 51 52 52 52 51 52 52 53 54 54 55 57 58 59 59
43 43 42 41 41 41 41 41 41 40 40 40 41 44 46 46 46 45 45 44 44 45 45 44 43 43 42 42 43 43 43 44 42 41 43 45 43 42 42 41 41 41 41 41 40 39 38 39 39 40 41 41 41 41 41 40 38 36 36 37 39 40 41 42 43 44 46 48 50 51 53 53 53 53 53 53 55 57 58 59 61 62 63 64 64
46 44 43 42 42 41 41 41 42 43 44 44 47 49 51 50 49 48 48 48 47 48 48 47 46 44 43 43 43 42 41 41 39 39 43 45 45 43 43 43 42 43 43 43 42 41 40 40 40 42 42 42 43 43 42 39 37 36 37 40 42 43 44 44 45 45 48 50 52 53 55 56 55 55 55 56 57 59 62 64 65 66 67 67 66
Wind_Direction
218 230 242 250 255 260 260 256 258 261 263 265 260 261 255 244 257 256 237 235 254 252 252 268 255 252 266 268 264 259 253 249 246 245 247 250 251 251 252 254 254 255 257 259 260 259 256 251 249 247 247 249 248 246 247 250 251 251 250 249 250 250 250 251 252 253 254 254 254 254 253 252 252 252 252 252 252 253 254 255 255 254 254 253 253
223 240 250 253 256 257 253 250 257 260 261 261 256 252 233 225 257 255 222 201 213 257 321 323 288 270 271 275 276 270 262 255 249 249 252 253 254 254 255 255 254 255 255 257 259 260 259 254 249 246 245 246 248 247 246 246 249 251 251 251 251 251 251 251 251 251 251 252 253 253 253 252 252 252 253 254 255 256 257 258 258 257 256 254 253
231 245 249 252 257 255 251 248 253 256 254 254 253 248 231 233 245 237 232 191 175 189 54 305 290 283 269 275 286 286 279 264 256 257 260 260 261 258 255 254 254 255 255 255 257 259 259 257 252 251 249 247 247 248 248 247 248 249 250 250 250 249 249 249 249 249 249 249 250 251 253 253 253 252 252 253 255 257 258 259 260 260 259 257 255
240 247 245 247 255 254 251 250 250 248 250 256 259 248 230 229 217 211 225 187 162 144 114 267 271 272 261 259 271 280 278 257 251 257 263 263 258 251 249 252 253 255 255 255 256 256 258 258 257 258 257 254 251 250 250 249 248 248 248 247 246 246 246 247 247 247 248 248 248 249 250 252 254 254 254 254 254 255 257 258 258 259 260 260 258
240 240 240 243 248 247 245 246 245 246 253 260 262 249 230 208 202 195 186 175 150 151 206 274 252 244 256 252 259 267 269 251 247 256 260 254 249 251 254 257 258 257 255 254 254 255 257 259 259 258 258 258 257 255 254 252 250 250 249 248 245 244 244 245 245 245 246 247 247 248 249 251 253 255 256 256 256 255 256 257 257 258 258 259 260
239 237 241 244 243 242 242 241 244 250 256 259 262 258 251 208 195 187 178 186 159 156 229 269 197 209 278 268 277 276 281 266 256 263 260 255 257 259 258 259 261 261 260 258 256 256 257 259 259 258 257 258 259 259 259 258 256 254 253 252 249 245 244 243 244 244 245 245 246 247 248 250 252 254 256 257 258 258 258 259 259 259 259 259 260
241 240 243 244 243 242 242 241 244 248 249 252 259 261 259 216 200 210 211 211 200 164 248 259 194 302 352 337 305 303 323 260 268 273 259 262 266 261 258 263 268 270 272 272 270 265 263 262 262 263 262 262 263 263 263 263 262 261 258 256 252 249 246 244 243 244 244 245 245 246 247 249 251 253 255 256 258 259 260 261 262 262 261 261 261
237 240 242 241 238 237 239 244 251 251 246 243 251 260 261 239 221 215 212 212 201 174 231 256 264 330 11 339 306 317 331 269 270 258 250 271 276 271 273 277 276 276 278 281 282 276 272 269 266 267 267 267 267 266 266 265 266 267 267 264 258 252 248 246 244 243 244 244 244 244 245 246 249 251 253 255 256 258 260 261 262 263 263 263 262
231 233 234 234 231 233 242 252 260 260 257 251 249 257 256 252 235 199 195 199 191 189 196 202 320 8 14 347 352 345 333 318 302 274 268 282 280 280 290 285 282 291 292 293 293 286 284 279 271 270 271 273 272 270 269 268 269 270 270 270 265 256 248 246 245 244 243 243 244 244 244 245 247 249 251 253 254 256 258 259 261 262 263 263 263
225 222 224 226 226 235 247 252 259 261 258 254 251 247 246 250 237 202 203 209 214 251 213 151 324 355 14 355 359 329 307 312 293 273 272 277 274 276 290 290 291 303 304 306 309 304 298 290 284 284 287 289 288 281 274 270 269 269 269 269 266 260 250 245 245 245 244 244 245 245 246 246 247 248 250 252 254 255 256 257 258 260 261 263 264
228 228 226 227 230 237 245 245 249 255 253 255 255 246 242 248 244 230 237 237 245 278 290 291 303 308 332 328 283 261 239 218 231 251 263 260 268 277 287 292 297 304 308 314 316 311 301 298 303 308 315 318 314 304 286 274 269 268 269 269 267 264 256 246 243 243 244 245 246 247 248 249 249 248 248 249 251 253 254 255 256 257 259 260 262
241 243 239 238 243 247 251 250 244 245 251 255 254 248 245 249 252 250 253 251 254 267 272 280 286 277 285 293 274 262 253 254 255 259 271 274 271 274 282 290 301 309 317 319 316 313 312 309 307 311 320 326 327 323 308 287 273 268 270 271 268 266 261 252 245 242 243 244 246 248 251 254 253 249 247 248 249 251 253 253 255 256 257 258 260
253 256 256 254 254 258 266 265 256 253 256 257 255 255 254 254 256 255 256 258 260 260 261 268 271 269 275 281 282 286 294 300 294 279 279 286 283 282 289 297 307 312 316 316 315 317 319 313 309 313 318 322 326 328 325 312 289 274 270 270 269 267 264 259 250 246 245 246 247 248 251 255 255 251 247 248 251 252 254 254 255 256 257 258 259
260 261 262 262 261 264 269 268 263 260 262 266 266 263 257 252 255 255 255 261 263 259 257 262 266 267 271 278 285 292 296 297 293 289 291 298 299 296 296 298 303 307 308 308 310 312 314 312 311 313 314 316 320 321 324 325 313 292 275 268 268 268 268 265 259 254 252 251 252 251 252 254 255 253 250 250 254 257 258 258 258 258 258 258 259
263 261 259 260 258 256 257 258 253 250 257 264 265 262 258 255 257 258 259 262 261 256 259 268 271 271 272 276 281 284 285 288 290 293 297 301 303 296 292 294 297 296 297 299 303 306 309 310 310 310 309 310 311 313 318 323 323 315 297 279 271 268 267 265 262 259 257 256 255 254 254 254 254 254 254 255 258 260 261 261 262 261 261 260 259
263 261 258 256 256 254 253 253 245 240 245 250 252 255 257 259 262 264 263 261 261 262 267 268 264 264 269 272 275 276 277 282 285 285 291 296 296 286 287 294 293 288 290 295 299 301 304 305 305 305 304 304 304 307 314 317 319 321 317 302 285 274 269 265 263 261 260 258 256 256 256 256 256 256 257 258 260 260 260 260 262 262 262 262 261
263 264 259 255 256 255 253 250 246 243 240 242 248 252 254 257 257 258 257 257 259 261 263 260 255 259 265 268 272 275 277 279 278 280 287 292 289 285 290 294 292 290 292 295 298 300 300 299 300 298 297 299 300 300 304 308 312 314 315 313 302 288 277 271 268 267 267 265 261 259 257 256 257 258 258 257 258 260 261 260 261 263 265 265 265
259 262 261 259 257 255 255 255 254 252 241 237 241 244 248 253 253 253 252 252 253 252 252 255 258 262 263 263 268 275 277 279 281 286 289 289 290 292 294 290 290 292 292 294 298 298 297 293 292 292 293 296 296 295 297 298 301 303 304 304 301 293 282 277 276 275 274 273 269 264 260 259 258 259 259 259 260 263 266 266 266 266 268 269 270
258 262 265 264 261 259 261 262 260 257 247 239 238 239 243 246 250 252 252 253 254 254 255 257 259 261 262 262 269 275 276 279 285 290 291 290 294 296 295 288 284 282 285 293 297 295 292 290 289 291 293 292 290 290 290 291 292 293 293 293 291 288 282 278 276 275 274 273 272 270 268 265 264 263 264 264 263 264 267 268 268 268 269 270 272
263 268 271 270 267 263 262 264 265 264 261 255 250 248 250 251 253 256 257 257 257 255 253 255 258 261 264 267 272 275 276 279 284 287 288 289 291 293 292 290 285 279 281 289 294 293 290 290 291 293 292 289 287 285 285 285 286 286 286 286 285 284 281 278 275 274 272 270 271 272 271 271 271 271 269 266 263 262 262 263 265 268 271 271 272
259 266 272 274 272 266 263 264 266 268 270 270 268 263 260 259 258 259 259 258 258 258 254 255 259 262 267 271 274 275 275 279 284 287 287 286 287 289 288 287 286 285 285 287 290 290 289 290 293 294 292 289 286 284 284 284 283 283 282 281 281 281 281 280 277 275 272 271 270 270 270 271 273 274 272 270 267 264 262 261 262 266 270 272 272
254 257 265 274 278 275 271 267 265 265 266 268 270 269 266 262 260 261 259 257 260 263 262 261 263 265 268 271 271 273 275 279 285 286 285 284 285 287 284 281 282 283 284 284 285 286 288 290 293 293 293 291 289 286 285 284 283 283 282 281 281 280 280 280 278 277 274 273 272 271 270 271 273 273 273 273 272 270 266 263 262 263 267 270 272
258 254 254 264 279 286 283 276 271 268 267 266 266 267 266 264 263 263 260 260 263 265 266 267 268 268 268 268 268 271 275 278 281 283 282 285 288 287 283 280 281 281 280 278 278 282 286 289 291 295 297 295 293 292 289 288 287 286 285 283 282 281 279 278 277 277 276 274 273 272 271 271 272 273 274 275 274 272 269 265 263 263 266 270 272
260 254 249 251 264 279 288 288 282 276 272 271 270 269 268 268 267 266 265 268 268 267 269 270 271 269 264 264 265 268 272 276 278 279 282 289 290 284 279 281 284 282 282 283 283 283 285 287 291 296 299 300 299 298 295 293 293 292 291 288 286 284 282 280 279 277 277 276 275 274 273 272 272 273 274 275 275 273 271 267 264 265 268 272 275
262 256 250 250 257 265 274 282 284 282 277 274 273 273 274 273 270 267 267 270 271 270 271 272 272 269 266 266 268 271 276 279 279 279 283 287 281 279 282 286 285 280 282 289 290 289 288 287 290 295 299 301 302 303 301 300 300 300 300 299 296 292 290 288 286 283 281 279 278 277 276 275 274 275 275 276 277 276 274 271 269 268 270 273 276
265 261 257 254 258 264 270 275 278 281 280 277 276 275 275 274 269 268 268 269 271 271 270 271 272 273 274 275 276 279 281 281 283 285 285 275 270 281 292 296 290 286 288 289 286 289 291 291 293 296 300 301 302 304 305 305 305 304 304 304 303 300 298 296 293 289 286 284 283 282 281 280 279 278 278 279 279 280 279 278 276 274 273 274 276
266 263 261 258 261 265 268 271 273 275 275 274 275 274 273 273 271 270 270 269 269 269 269 271 273 276 278 279 281 284 286 286 287 289 285 278 278 288 299 299 292 290 289 284 279 280 287 293 295 295 297 300 301 302 304 305 306 305 305 304 303 301 300 299 297 294 291 289 288 288 288 287 286 285 284 284 283 283 283 282 281 279 277 276 277
264 262 263 263 264 268 270 271 271 269 267 267 267 266 267 269 269 268 269 270 270 270 272 273 274 276 277 280 284 287 288 289 288 289 290 291 290 288 284 279 278 280 280 276 273 273 277 284 288 289 290 292 294 295 297 299 298 298 297 295 294 293 292 292 292 292 292 291 292 292 294 294 294 293 292 291 290 288 287 286 286 285 284 283 282
258 258 261 265 268 276 281 281 276 269 264 264 263 261 262 262 262 263 264 267 270 272 273 273 275 276 276 277 281 283 284 283 282 285 290 290 287 282 278 272 269 272 271 269 270 271 273 274 276 279 281 283 286 288 289 289 288 286 284 282 280 278 278 278 279 280 281 283 285 288 291 294 294 295 294 294 294 293 292 290 289 289 290 290 290
254 259 266 274 280 286 292 295 291 277 267 263 262 260 260 260 261 263 264 266 270 273 274 275 276 275 275 275 276 278 277 274 276 281 283 282 281 283 283 279 273 270 268 269 272 274 274 272 270 271 274 275 277 279 279 279 278 277 276 274 273 272 271 272 272 274 276 278 280 282 285 287 289 291 293 294 295 295 295 294 293 292 291 291 292
255 264 273 283 291 297 300 299 295 285 272 262 259 259 258 259 260 262 265 267 270 273 274 276 276 277 277 277 277 277 275 274 276 278 279 279 282 286 287 283 279 277 276 276 276 276 274 272 269 268 270 271 273 275 276 275 274 273 272 270 270 270 271 272 273 273 275 276 276 277 278 280 281 283 285 288 290 292 293 293 293 293 292 291 290
254 260 269 280 290 297 302 300 293 284 277 268 262 258 255 256 256 257 261 263 266 269 271 273 275 276 276 276 277 278 277 278 279 279 281 283 286 286 283 279 277 278 280 279 278 275 272 270 268 267 268 269 270 273 274 273 273 272 272 273 274 274 274 274 274 274 275 276 277 278 280 280 280 280 282 284 285 287 288 289 290 290 290 290 290
255 259 266 278 288 295 299 299 295 287 281 277 271 264 259 256 256 257 259 261 264 267 270 272 274 275 276 278 280 282 282 282 283 285 287 287 285 281 276 273 273 274 278 281 280 276 273 273 272 270 269 269 270 270 270 271 274 275 275 278 279 278 278 277 279 280 281 282 284 286 287 288 288 287 287 288 288 287 287 287 287 288 288 288 289
256 259 266 276 285 293 296 298 299 297 291 286 280 275 271 267 267 268 268 270 272 273 275 276 277 279 280 282 283 284 286 286 287 288 287 284 280 277 275 274 274 274 276 278 276 274 275 279 280 274 272 275 276 274 273 275 277 277 280 284 283 281 283 285 288 291 293 296 297 297 298 299 298 297 297 297 296 295 294 292 291 290 289 288 288
256 261 268 277 284 290 292 293 295 296 296 294 289 286 283 280 281 282 282 283 283 282 282 281 281 281 281 281 281 283 284 285 286 287 285 282 279 278 278 278 275 273 272 272 271 271 272 274 277 275 274 278 281 279 279 279 275 273 276 278 279 280 283 287 290 293 296 299 300 300 301 300 300 299 299 299 299 299 298 298 297 297 296 294 292
254 259 266 275 283 287 290 291 292 293 294 293 291 290 289 288 289 291 292 293 292 291 290 288 286 284 282 281 282 284 285 285 286 286 285 282 278 276 277 278 278 275 270 269 272 277 278 276 276 276 274 276 278 278 280 280 276 275 273 271 270 273 276 281 285 290 294 296 298 299 300 300 300 299 298 297 297 296 296 296 296 296 296 296 295
250 255 262 268 274 278 283 286 289 291 291 290 289 290 289 289 292 295 298 299 299 299 298 296 294 290 286 284 283 283 284 284 284 283 282 281 278 275 275 278 281 279 275 272 273 277 279 280 281 279 277 277 277 276 277 279 279 280 278 274 273 275 277 280 284 287 289 290 291 293 294 296 297 296 296 295 294 293 292 292 291 291 291 291 291
251 255 258 262 266 269 273 278 281 283 285 286 286 287 289 289 291 293 296 299 302 304 304 303 300 295 290 287 284 283 282 282 283 281 280 280 279 278 278 280 281 281 280 278 277 276 275 276 278 279 279 281 280 277 275 275 275 276 275 275 276 278 280 282 283 283 284 284 284 284 285 286 288 290 291 291 291 290 290 290 290 289 289 288 288
254 258 261 264 267 269 272 276 279 280 282 283 283 284 285 285 287 290 293 295 298 300 301 300 299 296 293 290 287 285 284 283 284 282 281 280 279 278 278 278 278 279 280 280 280 278 276 273 271 271 273 276 278 279 277 274 272 270 269 271 273 276 279 281 282 283 284 284 284 284 284 283 283 284 286 287 288 289 289 289 289 289 288 288 287
254 258 261 265 267 268 271 275 277 279 281 282 283 282 282 282 283 285 288 290 292 294 295 294 294 293 292 290 287 285 284 283 282 282 282 282 281 279 277 275 274 273 276 278 278 277 275 273 271 269 269 270 272 276 279 279 277 275 274 274 276 278 280 282 283 285 285 285 285 285 285 284 284 284 285 285 285 286 286 287 287 287 287 286 286
255 256 258 261 263 265 266 268 271 274 277 279 281 282 282 283 283 285 286 288 288 289 289 289 288 286 285 285 285 284 283 282 282 281 281 281 281 280 277 276 275 273 272 274 276 275 273 271 271 272 271 270 270 273 277 279 278 277 277 278 279 281 283 284 285 287 287 287 288 288 288 287 287 287 287 287 286 286 286 285 285 285 284 284 284
253 253 254 257 259 261 262 264 265 268 270 274 277 280 281 282 282 284 287 288 288 289 288 287 284 280 279 281 284 285 284 283 282 281 279 279 279 278 277 277 277 275 274 274 275 274 271 268 270 272 272 271 271 273 276 277 275 275 276 278 280 282 284 285 286 287 287 287 287 288 289 288 287 288 288 288 288 287 287 286 285 284 283 283 282
249 249 250 252 255 259 261 263 265 267 269 273 276 277 279 280 281 283 284 285 285 285 286 285 283 280 278 278 279 280 280 280 279 279 279 278 277 276 275 274 273 274 276 277 275 270 266 266 269 273 273 273 273 274 274 275 277 277 277 279 282 284 285 286 287 287 287 287 287 287 288 288 289 289 290 290 290 289 288 286 285 284 283 282 281
250 250 252 253 256 258 259 262 266 267 268 271 274 276 279 281 283 284 285 283 281 280 279 280 280 280 280 279 279 279 278 278 277 278 278 279 278 277 275 273 273 273 275 277 275 271 268 268 271 273 273 272 272 273 274 277 279 278 278 280 283 286 287 288 288 288 287 287 288 288 288 289 289 290 290 290 290 290 289 288 287 286 285 285 284
253 255 259 260 261 262 261 262 265 266 267 270 273 276 280 283 285 285 284 282 281 280 278 277 277 278 279 280 280 281 281 281 281 280 280 279 278 277 276 275 274 275 274 273 274 275 275 274 274 273 271 272 274 277 278 279 278 276 277 280 283 285 287 289 291 290 289 289 289 290 291 292 292 291 291 290 290 289 288 288 288 287 287 287 287
256 260 265 266 265 265 264 265 267 268 270 273 275 278 281 283 285 285 283 282 280 279 279 279 279 279 278 278 278 279 280 281 282 282 282 280 278 276 277 277 275 274 272 270 272 275 275 275 274 273 272 275 277 278 279 278 277 277 280 282 285 287 290 292 294 293 292 292 292 293 295 297 297 296 293 291 290 290 289 289 288 288 288 288 288
258 261 265 265 264 264 266 268 269 269 271 273 277 280 282 283 283 283 283 282 281 280 280 279 279 279 279 278 278 278 278 280 281 283 283 282 279 277 278 277 275 272 270 269 270 273 273 273 274 274 274 274 275 276 276 276 278 281 283 285 287 290 293 295 295 293 291 293 295 297 299 300 300 299 296 294 292 291 290 290 289 289 289 289 289
259 261 263 263 263 264 268 270 269 268 267 270 276 282 285 285 282 280 280 281 282 282 280 278 277 278 278 279 278 278 279 281 281 282 282 280 278 277 277 276 274 271 269 269 270 271 271 271 272 272 272 271 272 273 273 275 278 281 283 284 288 291 294 295 293 291 292 294 297 299 302 303 302 301 299 297 295 294 293 292 291 291 290 289 288
259 261 263 263 263 265 268 269 267 264 263 268 277 283 286 286 283 280 278 279 280 280 280 278 278 278 278 278 278 277 279 281 281 281 280 278 276 277 276 275 274 271 270 271 272 272 271 271 270 270 269 268 268 269 271 275 278 280 281 284 289 293 296 296 294 293 293 295 299 304 306 306 305 303 302 300 299 297 296 294 293 292 290 289 288
263 263 262 262 263 265 266 264 262 260 261 268 277 282 284 284 283 280 278 278 278 279 279 280 280 279 278 278 276 277 280 282 281 278 277 275 275 276 275 274 273 272 272 274 274 274 273 271 269 267 266 267 267 269 272 275 277 278 281 286 291 295 297 296 294 293 294 297 302 308 310 310 308 305 303 301 300 298 297 296 294 293 291 290 289
266 263 261 261 264 265 264 261 259 258 260 267 274 279 281 281 280 279 278 278 278 278 278 280 280 280 280 279 278 279 282 282 280 276 273 273 273 273 273 273 272 272 272 273 273 273 272 270 267 266 265 265 267 270 274 275 276 278 283 288 292 295 295 295 294 294 297 301 306 310 312 311 308 305 303 301 299 298 297 296 294 293 292 291 290
Height
5818 5819 5820 5820 5820 5820 5820 5820 5820 5820 5820 5819 5819 5819 5820 5821 5822 5822 5822 5822 5822 5822 5821 5821 5821 5821 5822 5823 5824 5826 5827 5828 5829 5829 5830 5831 5831 5831 5832 5832 5832 5833 5834 5834 5835 5836 5837 5838 5839 5839 5839 5839 5840 5840 5841 5841 5841 5842 5842 5842 5843 5843 5843 5843 5843 5844 5844 5844 5845 5845 5845 5845 5845 5845 5845 5845 5846 5846 5846 5847 5847 5848 5848 5848 5848
5816 5817 5818 5819 5819 5819 5819 5819 5819 5819 5818 5817 5817 5817 5818 5819 5820 5820 5819 5820 5821 5821 5820 5820 5820 5820 5820 5821 5823 5825 5826 5827 5827 5828 5829 5829 5830 5830 5830 5830 5830 5830 5831 5832 5833 5834 5835 5836 5836 5837 5837 5837 5838 5838 5839 5839 5839 5840 5840 5841 5841 5841 5842 5842 5842 5842 5842 5842 5842 5843 5843 5843 5843 5843 5843 5844 5844 5844 5845 5845 5846 5846 5847 5847 5847
5815 5816 5817 5817 5817 5818 5818 5818 5818 5818 5816 5816 5816 5816 5817 5817 5818 5818 5818 5818 5818 5819 5819 5819 5820 5819 5820 5820 5822 5824 5825 5826 5826 5827 5828 5828 5828 5828 5827 5827 5828 5828 5830 5831 5832 5832 5832 5833 5834 5834 5835 5836 5836 5836 5836 5837 5837 5838 5838 5838 5839 5839 5840 5840 5840 5840 5840 5840 5840 5840 5841 5841 5841 5841 5841 5842 5842 5842 5843 5843 5844 5844 5845 5845 5845
5814 5815 5815 5816 5816 5816 5817 5816 5816 5816 5815 5815 5815 5815 5816 5816 5816 5816 5817 5817 5816 5817 5818 5819 5819 5819 5819 5820 5821 5823 5824 5825 5825 5826 5827 5826 5826 5825 5825 5825 5826 5827 5828 5829 5829 5829 5829 5830 5831 5832 5833 5834 5834 5834 5834 5835 5835 5835 5835 5836 5836 5836 5837 5837 5838 5838 5838 5838 5838 5838 5838 5839 5839 5839 5839 5840 5840 5840 5840 5841 5841 5842 5842 5843 5843
5813 5814 5814 5814 5814 5815 5815 5815 5815 5815 5815 5815 5815 5815 5814 5814 5814 5815 5816 5816 5815 5816 5818 5818 5818 5818 5818 5819 5820 5821 5822 5824 5824 5825 5825 5825 5824 5822 5822 5823 5825 5827 5827 5826 5826 5827 5828 5828 5829 5830 5831 5831 5832 5832 5833 5833 5833 5833 5833 5833 5834 5834 5834 5835 5835 5836 5836 5836 5836 5836 5836 5837 5837 5837 5837 5838 5838 5838 5838 5838 5839 5839 5840 5840 5841
5811 5812 5813 5813 5813 5813 5813 5813 5813 5814 5814 5814 5814 5814 5813 5813 5813 5813 5814 5814 5815 5816 5817 5816 5817 5817 5818 5819 5819 5820 5821 5822 5823 5823 5823 5823 5822 5820 5820 5823 5825 5825 5824 5824 5825 5825 5826 5826 5827 5827 5828 5829 5830 5830 5830 5830 5831 5831 5831 5831 5831 5832 5832 5832 5832 5833 5833 5834 5834 5834 5834 5835 5835 5835 5835 5835 5836 5836 5836 5836 5837 5837 5837 5838 5838
5810 5810 5811 5811 5812 5811 5810 5811 5812 5813 5813 5814 5813 5813 5813 5812 5812 5813 5813 5814 5815 5816 5816 5816 5816 5817 5817 5818 5818 5819 5820 5821 5821 5822 5822 5821 5819 5818 5820 5823 5824 5823 5822 5822 5823 5824 5825 5825 5825 5825 5826 5826 5827 5827 5828 5828 5828 5828 5828 5829 5829 5829 5829 5829 5830 5830 5831 5831 5832 5832 5832 5832 5833 5833 5833 5833 5833 5834 5834 5834 5834 5835 5835 5835 5836
5808 5809 5809 5809 5810 5809 5808 5809 5811 5812 5813 5813 5812 5812 5812 5812 5812 5812 5813 5815 5815 5815 5815 5815 5815 5816 5817 5818 5818 5818 5819 5820 5821 5821 5821 5820 5817 5817 5820 5822 5821 5821 5821 5821 5822 5823 5823 5823 5824 5824 5824 5824 5824 5825 5825 5825 5825 5825 5826 5826 5826 5826 5827 5827 5827 5828 5828 5829 5829 5830 5830 5830 5830 5830 5831 5831 5831 5831 5832 5832 5832 5832 5833 5833 5833
5808 5807 5807 5808 5809 5808 5808 5809 5810 5811 5812 5812 5811 5812 5812 5812 5812 5813 5813 5814 5815 5814 5814 5815 5814 5815 5816 5817 5817 5818 5818 5819 5820 5820 5820 5819 5817 5817 5819 5819 5819 5820 5820 5821 5821 5821 5822 5822 5822 5822 5822 5821 5821 5821 5822 5822 5822 5822 5823 5823 5823 5824 5824 5824 5824 5825 5825 5826 5826 5827 5827 5827 5828 5828 5828 5828 5829 5829 5829 5829 5830 5830 5830 5830 5830
5807 5807 5807 5807 5808 5807 5807 5809 5810 5811 5811 5810 5810 5811 5811 5812 5813 5812 5812 5813 5814 5813 5813 5814 5814 5815 5816 5817 5817 5818 5818 5819 5819 5819 5819 5819 5817 5816 5817 5818 5818 5819 5820 5820 5820 5820 5821 5820 5821 5820 5820 5819 5819 5818 5818 5818 5819 5819 5819 5820 5820 5820 5821 5821 5821 5822 5822 5823 5823 5824 5824 5825 5825 5825 5826 5826 5826 5826 5827 5827 5827 5827 5827 5827 5828
5806 5806 5806 5807 5807 5807 5807 5808 5809 5809 5810 5810 5810 5810 5811 5812 5812 5812 5812 5812 5812 5813 5813 5812 5813 5814 5815 5816 5817 5817 5818 5819 5819 5818 5818 5818 5817 5816 5816 5817 5817 5818 5818 5819 5819 5820 5820 5820 5819 5819 5818 5818 5817 5816 5815 5815 5815 5816 5816 5816 5817 5817 5818 5818 5818 5819 5820 5820 5821 5821 5822 5822 5823 5823 5823 5823 5823 5824 5824 5824 5824 5824 5824 5824 5825
5804 5804 5805 5805 5805 5805 5805 5806 5807 5808 5809 5809 5809 5809 5810 5811 5812 5811 5812 5811 5811 5812 5813 5812 5812 5812 5813 5814 5815 5816 5817 5817 5818 5818 5817 5817 5817 5816 5816 5816 5816 5816 5817 5818 5818 5818 5818 5819 5818 5818 5817 5816 5815 5814 5813 5813 5813 5813 5813 5813 5814 5814 5814 5815 5815 5816 5817 5817 5818 5818 5819 5819 5819 5820 5820 5820 5821 5821 5821 5821 5821 5821 5821 5821 5821
5802 5802 5803 5803 5804 5804 5804 5805 5806 5806 5807 5808 5807 5808 5809 5810 5810 5810 5810 5810 5811 5811 5812 5811 5811 5811 5812 5813 5813 5814 5815 5815 5816 5816 5816 5815 5815 5815 5815 5814 5814 5815 5815 5816 5816 5816 5817 5817 5817 5816 5816 5815 5814 5813 5811 5811 5811 5810 5811 5811 5811 5811 5812 5812 5812 5813 5814 5814 5815 5816 5816 5816 5816 5816 5817 5817 5818 5818 5818 5818 5818 5818 5818 5818 5818
5799 5800 5801 5802 5802 5803 5804 5804 5805 5805 5805 5806 5806 5806 5807 5808 5809 5809 5809 5809 5810 5810 5810 5810 5810 5810 5810 5811 5811 5812 5813 5814 5814 5814 5814 5814 5814 5813 5813 5813 5813 5813 5813 5813 5814 5814 5815 5815 5815 5815 5814 5813 5812 5811 5810 5809 5808 5808 5808 5808 5808 5809 5809 5810 5810 5810 5811 5812 5812 5813 5813 5813 5813 5814 5814 5815 5815 5815 5815 5815 5815 5815 5815 5815 5815
5797 5799 5800 5801 5801 5802 5803 5803 5803 5804 5804 5804 5805 5805 5806 5807 5807 5807 5808 5808 5809 5809 5808 5808 5809 5809 5809 5810 5810 5811 5812 5812 5812 5812 5812 5812 5813 5812 5812 5812 5813 5813 5812 5812 5812 5813 5813 5813 5813 5813 5812 5811 5810 5810 5809 5808 5807 5806 5806 5806 5806 5807 5807 5807 5808 5808 5808 5809 5810 5810 5810 5811 5811 5811 5812 5812 5812 5812 5812 5812 5812 5812 5812 5812 5812
5796 5798 5799 5800 5800 5801 5801 5801 5802 5802 5802 5803 5804 5804 5804 5805 5806 5806 5806 5807 5807 5807 5807 5807 5807 5807 5808 5808 5809 5810 5810 5810 5810 5810 5811 5811 5812 5812 5812 5812 5812 5811 5811 5811 5811 5811 5812 5811 5811 5811 5810 5809 5809 5808 5807 5806 5806 5805 5805 5804 5805 5805 5805 5806 5806 5806 5806 5807 5807 5807 5808 5809 5809 5809 5809 5809 5809 5809 5809 5809 5809 5809 5809 5808 5808
5795 5796 5798 5799 5799 5799 5800 5800 5801 5801 5801 5801 5802 5803 5803 5803 5804 5804 5805 5805 5806 5806 5806 5806 5806 5807 5807 5807 5807 5808 5808 5809 5809 5810 5810 5810 5810 5811 5811 5811 5810 5809 5810 5810 5809 5809 5810 5810 5809 5809 5808 5808 5807 5806 5806 5805 5804 5803 5803 5803 5803 5803 5804 5804 5804 5804 5804 5804 5805 5805 5806 5806 5806 5805 5805 5806 5806 5806 5806 5807 5806 5806 5805 5805 5805
5795 5795 5796 5797 5798 5798 5798 5798 5799 5799 5800 5800 5801 5802 5802 5802 5802 5803 5803 5804 5804 5805 5804 5805 5805 5805 5805 5805 5806 5806 5806 5807 5807 5808 5808 5808 5808 5808 5809 5809 5808 5808 5808 5808 5808 5808 5808 5807 5807 5806 5806 5806 5805 5804 5804 5803 5802 5802 5802 5802 5801 5802 5802 5802 5802 5802 5802 5803 5803 5803 5803 5803 5802 5802 5802 5803 5803 5803 5803 5804 5804 5803 5802 5802 5802
5794 5794 5794 5795 5796 5796 5797 5797 5797 5798 5798 5799 5799 5800 5800 5801 5801 5801 5802 5802 5803 5803 5803 5803 5803 5804 5804 5804 5804 5804 5804 5804 5805 5806 5806 5805 5805 5806 5806 5806 5806 5807 5806 5806 5806 5806 5805 5805 5805 5804 5804 5804 5803 5803 5802 5801 5801 5800 5800 5800 5800 5800 5800 5800 5801 5800 5801 5801 5800 5800 5800 5800 5799 5799 5800 5801 5801 5801 5801 5801 5800 5799 5799 5799 5799
5792 5792 5793 5793 5794 5795 5795 5796 5796 5796 5797 5797 5798 5798 5798 5799 5799 5799 5800 5800 5800 5801 5801 5801 5801 5801 5801 5801 5802 5802 5802 5802 5802 5803 5803 5803 5803 5804 5804 5804 5804 5805 5805 5804 5804 5803 5803 5802 5802 5802 5802 5802 5801 5801 5800 5800 5799 5799 5798 5798 5798 5798 5798 5798 5798 5798 5798 5798 5798 5798 5798 5798 5796 5796 5797 5798 5798 5798 5798 5798 5797 5796 5795 5796 5796
5792 5792 5792 5792 5792 5793 5794 5795 5795 5795 5795 5795 5796 5796 5796 5797 5798 5798 5798 5798 5798 5799 5799 5799 5799 5799 5799 5799 5799 5800 5800 5800 5800 5800 5801 5801 5802 5802 5802 5802 5802 5802 5802 5802 5801 5801 5801 5800 5800 5800 5800 5800 5799 5799 5798 5798 5797 5797 5796 5796 5796 5796 5795 5795 5796 5796 5796 5796 5795 5795 5796 5795 5794 5794 5794 5795 5795 5795 5795 5795 5795 5794 5793 5793 5793
5791 5791 5791 5791 5791 5791 5792 5793 5793 5793 5794 5794 5794 5794 5794 5795 5796 5796 5797 5797 5796 5796 5797 5797 5797 5797 5797 5797 5797 5797 5798 5798 5798 5798 5799 5799 5800 5800 5800 5800 5800 5800 5800 5800 5799 5799 5799 5799 5799 5798 5798 5798 5797 5797 5797 5796 5795 5795 5794 5794 5794 5793 5793 5793 5793 5793 5793 5793 5793 5792 5792 5792 5792 5791 5791 5791 5791 5791 5791 5791 5791 5790 5789 5789 5790
5789 5789 5790 5790 5790 5790 5790 5790 5791 5791 5791 5792 5792 5792 5792 5793 5794 5794 5795 5795 5795 5795 5795 5795 5795 5795 5795 5796 5796 5796 5796 5796 5796 5796 5796 5797 5798 5798 5798 5798 5798 5798 5798 5798 5798 5797 5797 5797 5797 5797 5796 5796 5796 5795 5795 5794 5794 5793 5793 5792 5792 5791 5791 5791 5791 5791 5790 5790 5790 5790 5790 5789 5789 5788 5788 5788 5788 5787 5787 5787 5788 5787 5786 5786 5787
5787 5788 5788 5789 5789 5789 5789 5789 5790 5790 5790 5790 5790 5790 5791 5791 5791 5792 5792 5793 5793 5793 5793 5793 5794 5794 5793 5793 5793 5793 5794 5794 5795 5795 5795 5795 5796 5796 5796 5796 5797 5796 5796 5796 5795 5795 5795 5796 5795 5795 5795 5794 5794 5794 5793 5793 5792 5791 5791 5790 5790 5789 5789 5789 5789 5788 5788 5788 5787 5787 5787 5787 5786 5786 5785 5785 5785 5784 5784 5784 5784 5784 5784 5783 5783
5785 5786 5787 5787 5787 5788 5788 5788 5789 5789 5789 5789 5788 5788 5789 5789 5789 5790 5790 5790 5791 5791 5791 5791 5792 5792 5791 5791 5791 5791 5791 5792 5792 5793 5793 5793 5793 5793 5794 5795 5794 5794 5794 5794 5794 5793 5793 5794 5794 5793 5793 5793 5792 5792 5792 5791 5790 5790 5789 5789 5788 5788 5788 5787 5787 5787 5786 5786 5785 5785 5785 5784 5784 5784 5783 5783 5782 5782 5782 5782 5782 5782 5781 5781 5781
5784 5784 5785 5785 5786 5786 5787 5787 5787 5787 5788 5787 5787 5787 5787 5787 5787 5787 5788 5788 5788 5789 5789 5789 5789 5789 5789 5789 5789 5789 5789 5789 5789 5790 5791 5792 5791 5791 5792 5792 5792 5792 5792 5792 5792 5792 5791 5791 5791 5791 5791 5791 5791 5790 5790 5790 5789 5788 5788 5787 5787 5786 5786 5786 5785 5785 5785 5784 5784 5783 5783 5782 5782 5781 5781 5780 5780 5780 5779 5779 5779 5779 5779 5779 5778
5782 5783 5783 5784 5784 5784 5784 5784 5785 5785 5785 5785 5785 5785 5785 5785 5785 5785 5785 5786 5786 5786 5787 5787 5787 5787 5787 5787 5786 5786 5786 5786 5786 5787 5788 5789 5789 5789 5789 5790 5789 5789 5790 5790 5791 5790 5790 5789 5789 5789 5789 5789 5789 5789 5789 5788 5788 5787 5787 5786 5786 5785 5785 5784 5784 5783 5783 5783 5782 5782 5781 5780 5780 5779 5779 5778 5778 5778 5777 5777 5777 5777 5777 5777 5776
5780 5781 5782 5782 5782 5782 5782 5782 5782 5782 5782 5783 5783 5783 5783 5783 5783 5783 5783 5783 5784 5784 5784 5784 5784 5784 5784 5784 5784 5784 5784 5784 5784 5785 5785 5786 5787 5787 5787 5787 5787 5787 5788 5788 5788 5788 5788 5788 5788 5788 5788 5788 5788 5787 5787 5787 5786 5786 5785 5785 5784 5784 5783 5783 5782 5782 5781 5781 5780 5780 5780 5779 5779 5778 5777 5777 5776 5776 5775 5775 5775 5774 5774 5774 5774
5779 5780 5780 5780 5780 5780 5780 5779 5780 5780 5780 5780 5780 5780 5780 5780 5780 5781 5781 5782 5782 5782 5782 5782 5782 5782 5782 5782 5782 5782 5782 5782 5782 5782 5783 5783 5784 5784 5785 5785 5785 5786 5786 5786 5786 5786 5786 5786 5786 5786 5786 5786 5786 5785 5785 5785 5785 5784 5784 5783 5783 5783 5782 5782 5781 5780 5780 5779 5779 5779 5779 5778 5778 5777 5776 5776 5775 5775 5774 5774 5773 5773 5772 5772 5771
5778 5778 5778 5778 5778 5778 5778 5778 5778 5777 5777 5777 5778 5778 5778 5778 5779 5779 5779 5779 5780 5780 5780 5780 5780 5780 5780 5780 5780 5780 5781 5780 5780 5780 5781 5781 5781 5781 5782 5783 5783 5783 5784 5784 5784 5784 5784 5784 5784 5784 5784 5784 5784 5783 5783 5783 5783 5783 5782 5782 5781 5781 5781 5780 5780 5779 5779 5778 5778 5778 5777 5777 5777 5776 5775 5775 5774 5773 5773 5772 5771 5771 5770 5770 5769
5777 5777 5777 5777 5777 5777 5777 5776 5776 5776 5775 5775 5775 5775 5776 5776 5777 5777 5777 5777 5778 5778 5778 5778 5778 5779 5779 5779 5779 5779 5779 5779 5778 5779 5779 5778 5779 5780 5780 5780 5780 5781 5781 5781 5782 5782 5782 5782 5782 5782 5782 5782 5781 5781 5781 5781 5781 5781 5780 5780 5779 5779 5779 5779 5778 5778 5778 5777 5777 5776 5776 5776 5775 5775 5774 5773 5772 5772 5771 5770 5769 5769 5768 5768 5768
5775 5775 5775 5775 5775 5775 5775 5775 5775 5774 5774 5773 5773 5773 5773 5774 5774 5774 5774 5775 5775 5776 5776 5777 5777 5777 5777 5777 5777 5777 5777 5777 5777 5777 5777 5777 5778 5778 5779 5778 5778 5778 5778 5778 5779 5780 5779 5779 5780 5780 5780 5779 5779 5779 5779 5778 5779 5779 5779 5778 5777 5777 5777 5777 5777 5776 5776 5776 5775 5775 5774 5774 5773 5773 5772 5771 5770 5769 5769 5768 5767 5767 5766 5766 5765
5773 5773 5773 5773 5773 5773 5773 5773 5773 5773 5773 5772 5772 5771 5771 5771 5772 5772 5772 5773 5773 5774 5774 5774 5775 5775 5776 5776 5776 5776 5776 5775 5775 5776 5776 5776 5776 5776 5777 5776 5776 5776 5776 5776 5777 5777 5777 5777 5778 5778 5777 5777 5777 5777 5777 5777 5776 5776 5777 5776 5775 5775 5775 5775 5774 5774 5774 5774 5773 5773 5772 5772 5771 5770 5769 5769 5768 5767 5766 5766 5765 5764 5764 5763 5762
5771 5771 5771 5771 5771 5771 5771 5771 5771 5771 5771 5771 5770 5770 5770 5770 5770 5770 5771 5771 5771 5772 5772 5773 5773 5774 5774 5774 5775 5774 5774 5774 5774 5775 5775 5775 5775 5774 5774 5775 5775 5774 5774 5775 5775 5775 5775 5775 5775 5776 5776 5776 5775 5775 5775 5775 5775 5775 5774 5774 5773 5773 5773 5773 5772 5772 5771 5771 5771 5770 5770 5769 5768 5767 5766 5766 5765 5764 5764 5763 5762 5761 5761 5760 5759
5769 5769 5769 5769 5769 5769 5769 5769 5769 5769 5769 5769 5769 5769 5769 5769 5769 5769 5770 5770 5770 5771 5771 5772 5772 5772 5773 5773 5773 5773 5772 5772 5773 5773 5773 5773 5773 5773 5772 5772 5773 5773 5773 5772 5772 5772 5773 5773 5773 5773 5773 5774 5773 5772 5772 5773 5773 5773 5773 5772 5771 5771 5771 5771 5770 5770 5769 5769 5768 5767 5767 5766 5765 5764 5764 5763 5762 5761 5760 5759 5759 5758 5757 5756 5756
5766 5767 5767 5767 5767 5767 5767 5767 5767 5767 5767 5767 5767 5767 5767 5767 5767 5768 5768 5768 5769 5769 5770 5770 5770 5771 5771 5771 5771 5771 5770 5770 5770 5771 5771 5771 5771 5771 5770 5770 5770 5771 5771 5771 5770 5770 5770 5771 5771 5770 5770 5771 5771 5770 5770 5771 5770 5770 5770 5770 5769 5769 5770 5769 5769 5769 5768 5767 5766 5764 5764 5763 5762 5761 5761 5760 5759 5758 5757 5756 5755 5754 5753 5752 5751
5765 5765 5765 5765 5766 5766 5765 5765 5765 5765 5765 5765 5765 5765 5765 5765 5765 5766 5766 5766 5767 5767 5767 5768 5768 5768 5768 5768 5768 5768 5768 5768 5768 5768 5768 5769 5769 5769 5768 5768 5768 5768 5768 5768 5768 5768 5768 5768 5769 5768 5768 5768 5768 5768 5768 5769 5768 5767 5767 5767 5767 5767 5767 5767 5766 5767 5766 5766 5764 5763 5762 5760 5759 5758 5757 5756 5756 5755 5754 5753 5752 5751 5749 5748 5747
5764 5764 5764 5764 5764 5764 5764 5763 5763 5763 5763 5763 5763 5763 5763 5763 5763 5763 5764 5764 5764 5764 5764 5765 5765 5765 5765 5765 5766 5766 5766 5766 5766 5765 5765 5766 5766 5767 5767 5766 5766 5765 5764 5765 5765 5766 5766 5767 5767 5766 5766 5765 5765 5766 5766 5766 5766 5765 5764 5763 5764 5763 5763 5763 5763 5763 5763 5762 5761 5760 5759 5758 5757 5755 5754 5752 5751 5750 5749 5748 5747 5746 5745 5744 5743
5762 5762 5762 5763 5763 5763 5762 5762 5762 5761 5761 5761 5761 5761 5761 5761 5761 5761 5761 5762 5762 5762 5762 5762 5762 5762 5762 5762 5763 5763 5763 5763 5763 5763 5762 5763 5763 5764 5764 5764 5764 5763 5762 5761 5762 5763 5763 5764 5764 5764 5764 5763 5763 5762 5762 5763 5762 5762 5761 5761 5760 5760 5759 5759 5758 5758 5758 5757 5756 5755 5754 5754 5753 5752 5750 5748 5747 5746 5744 5743 5742 5741 5739 5738 5737
5760 5760 5760 5761 5761 5761 5761 5760 5760 5760 5759 5759 5759 5759 5759 5759 5759 5759 5759 5759 5759 5759 5759 5759 5759 5759 5759 5760 5760 5760 5760 5760 5760 5760 5760 5760 5760 5760 5761 5761 5762 5761 5760 5759 5759 5759 5760 5760 5760 5761 5761 5761 5760 5759 5759 5759 5758 5757 5757 5757 5756 5756 5755 5754 5754 5753 5752 5752 5752 5750 5749 5748 5748 5747 5745 5744 5742 5741 5739 5738 5737 5735 5734 5732 5731
5757 5758 5758 5758 5758 5758 5758 5758 5758 5757 5757 5757 5757 5757 5757 5758 5758 5758 5758 5757 5757 5757 5757 5757 5757 5756 5756 5757 5757 5757 5757 5757 5757 5757 5757 5757 5756 5756 5757 5757 5757 5758 5758 5756 5755 5755 5756 5756 5756 5756 5756 5757 5757 5756 5755 5755 5755 5754 5753 5753 5752 5752 5751 5750 5749 5748 5747 5747 5746 5745 5743 5742 5741 5740 5739 5738 5737 5735 5734 5732 5731 5730 5728 5727 5725
5755 5755 5755 5755 5755 5755 5755 5755 5755 5755 5754 5754 5755 5755 5755 5755 5755 5756 5756 5755 5755 5755 5754 5754 5754 5754 5754 5754 5754 5754 5754 5754 5754 5754 5754 5754 5753 5753 5753 5753 5753 5753 5754 5753 5752 5752 5752 5752 5752 5752 5752 5752 5752 5752 5752 5751 5751 5750 5749 5749 5748 5748 5747 5746 5745 5744 5743 5742 5741 5740 5738 5736 5735 5734 5733 5731 5730 5729 5727 5726 5724 5723 5722 5721 5719
5752 5752 5752 5752 5752 5752 5752 5752 5752 5752 5751 5751 5751 5752 5752 5752 5752 5752 5753 5753 5753 5752 5752 5751 5751 5751 5751 5751 5751 5750 5751 5751 5751 5751 5750 5750 5750 5750 5749 5749 5749 5749 5749 5749 5749 5748 5748 5747 5747 5747 5747 5747 5747 5747 5747 5747 5747 5746 5745 5744 5743 5743 5742 5741 5740 5739 5737 5736 5736 5735 5734 5732 5730 5728 5727 5725 5723 5722 5720 5718 5717 5716 5714 5713 5712
5748 5749 5749 5749 5749 5749 5748 5748 5748 5748 5748 5748 5748 5748 5748 5748 5748 5749 5749 5749 5749 5748 5748 5748 5747 5747 5747 5747 5747 5746 5746 5747 5747 5746 5746 5746 5746 5746 5745 5745 5745 5745 5745 5744 5744 5744 5744 5743 5743 5742 5742 5742 5742 5742 5743 5743 5742 5742 5741 5740 5739 5738 5737 5736 5735 5734 5733 5731 5730 5730 5729 5727 5725 5723 5721 5719 5717 5715 5712 5711 5709 5707 5706 5705 5704
5744 5745 5745 5745 5745 5744 5744 5743 5743 5744 5744 5744 5744 5744 5744 5744 5744 5745 5745 5744 5744 5744 5744 5743 5743 5743 5743 5742 5742 5742 5742 5742 5741 5741 5742 5742 5742 5741 5741 5741 5741 5740 5740 5740 5740 5739 5739 5738 5738 5737 5737 5737 5737 5736 5737 5737 5737 5736 5735 5735 5734 5733 5732 5730 5729 5728 5727 5726 5725 5724 5723 5721 5719 5718 5716 5713 5711 5708 5706 5703 5701 5700 5698 5697 5696
5739 5739 5740 5740 5740 5740 5739 5739 5739 5739 5739 5739 5739 5740 5740 5740 5740 5739 5739 5740 5740 5739 5739 5739 5739 5739 5738 5738 5738 5737 5737 5737 5736 5735 5736 5736 5736 5736 5736 5736 5735 5735 5735 5735 5735 5734 5734 5733 5733 5733 5733 5732 5731 5731 5730 5730 5730 5730 5729 5729 5728 5727 5726 5724 5723 5722 5720 5719 5718 5718 5716 5714 5713 5711 5709 5706 5704 5701 5699 5696 5694 5692 5691 5689 5688
5733 5734 5735 5735 5735 5734 5734 5734 5734 5734 5734 5734 5734 5735 5735 5735 5736 5735 5734 5735 5735 5735 5735 5735 5734 5734 5734 5733 5733 5733 5732 5732 5731 5730 5730 5730 5729 5730 5731 5730 5730 5730 5730 5730 5730 5730 5729 5729 5728 5728 5728 5727 5726 5725 5725 5724 5724 5724 5723 5722 5722 5721 5720 5719 5718 5716 5715 5713 5712 5711 5710 5708 5706 5704 5701 5699 5697 5694 5691 5689 5687 5685 5683 5681 5679
5728 5729 5729 5730 5729 5729 5728 5728 5728 5728 5729 5728 5728 5729 5729 5729 5730 5730 5730 5729 5729 5729 5730 5730 5730 5729 5729 5728 5728 5728 5728 5727 5726 5725 5725 5724 5724 5724 5725 5724 5724 5723 5724 5724 5724 5724 5724 5723 5723 5723 5722 5722 5722 5721 5720 5720 5719 5718 5718 5717 5716 5715 5715 5714 5712 5711 5709 5707 5706 5705 5703 5701 5699 5696 5694 5691 5689 5686 5684 5681 5679 5677 5675 5673 5671
5723 5723 5723 5724 5723 5723 5722 5721 5722 5722 5723 5722 5722 5722 5723 5723 5723 5724 5724 5723 5723 5722 5723 5724 5724 5724 5724 5723 5722 5722 5722 5721 5720 5720 5719 5718 5718 5718 5718 5718 5718 5718 5718 5719 5719 5718 5718 5718 5717 5717 5717 5717 5716 5716 5715 5714 5714 5713 5712 5712 5711 5710 5709 5708 5707 5705 5703 5701 5700 5699 5697 5694 5691 5689 5686 5684 5680 5677 5676 5673 5671 5668 5665 5664 5663
5716 5716 5716 5717 5717 5716 5715 5715 5715 5716 5717 5716 5715 5715 5716 5716 5716 5716 5716 5716 5716 5716 5716 5717 5717 5718 5718 5718 5717 5717 5716 5715 5713 5713 5712 5712 5712 5712 5712 5711 5712 5712 5712 5712 5712 5712 5712 5711 5711 5711 5711 5710 5710 5710 5709 5709 5709 5708 5707 5706 5705 5704 5703 5702 5700 5699 5697 5695 5694 5692 5689 5686 5683 5681 5679 5677 5673 5669 5666 5664 5661 5658 5654 5653 5652
5708 5709 5709 5709 5710 5709 5709 5709 5709 5710 5710 5710 5709 5709 5709 5709 5709 5709 5709 5709 5709 5709 5709 5709 5710 5710 5711 5710 5710 5710 5710 5708 5707 5707 5706 5705 5706 5706 5705 5705 5705 5705 5706 5706 5705 5705 5705 5705 5705 5705 5705 5705 5704 5704 5704 5703 5703 5702 5701 5700 5700 5699 5697 5696 5694 5692 5690 5688 5686 5683 5681 5678 5676 5673 5671 5669 5667 5663 5658 5654 5651 5647 5644 5642 5641